{"data":{"norad_id":68787,"epoch":"2026-05-25T02:27:01.003680Z","epoch_age_seconds":63343,"freshness":"FRESH","line1":"1 68787U 26086X   26145.10209495 -.00808506  00000+0 -10554-1 0  9990","line2":"2 68787  97.2848 181.9613 0000875  33.7393 326.3920 15.61238737  5523","mean_motion":15.61238737,"eccentricity":8.75e-5,"inclination_deg":97.2848,"raan_deg":181.9613,"arg_perigee_deg":33.7393,"mean_anomaly_deg":326.392,"bstar":-0.010554,"rev_number":552,"period_min":92.234452417382,"perigee_km":383.48611453775,"apogee_km":384.66950212921,"semimajor_km":6762.2148083335,"source":"CELESTRAK","updated_at":"2026-05-25T13:38:22.038880Z"}}